Other Surface Observations
Issued by NWS

Home | Current Version | Previous Version | Text Only | Print | Product List | Glossary On
Versions: 1 2 3 4 5 6 7 8 9 10 11 12 13 14 15 16 17 18 19 20 21 22 23 24 25 26 27 28 29 30 31 32 33 34 35 36 37 38 39 40 41 42 43 44 45 46 47 48 49 50
000
SXUS52 KTAE 041710
OSOTAE
OSOTAE
North Florida/South Alabama/Southwest Georgia Weather Roundup
National Weather Service Tallahassee Florida
100 PM EDT MON MAY 04 2015

Note: "fair" indicates few or no clouds below 12,000 feet with no
significant weather and/or obstructions to visibility.

!FLZ017-115-028-034-025-041800
...North Florida...

CITY           SKY/WX    TMP DP  RH WIND       PRES   REMARKS
TALLAHASSEE    MOSUNNY   85  48  27 SE8       30.25F
APALACHICOLA   SUNNY     82  65  56 E10       30.25F
PERRY          MOSUNNY   80  51  36 E6        30.26F
CROSS CITY       N/A     82  57  42 VRB6      30.24F
JACKSONVILLE   PTSUNNY   78  59  51 E16       30.28F
$$

!FLZ112-006-005-002-011-041800
...Florida Panhandle...

CITY           SKY/WX    TMP DP  RH WIND       PRES   REMARKS
MARIANNA       MOSUNNY   80  53  39 E8        30.25F
BONIFAY        NOT AVBL
PANAMA CITY NW FAIR      82  51  34 NE10G18   30.23F
TYNDALL AFB    MOSUNNY   82  53  36 VRB7      30.24F
TYND DRONE APT NOT AVBL
DE FUNIAK SPR  FAIR      79  53  39 SE3       30.26F
EGLIN AFB      MOSUNNY   80  62  53 SE12      30.25S
DESTIN         SUNNY     79  66  64 SE10      30.25S
HURLBURT       SUNNY     79  65  62 SE13      30.24S
CRESTVIEW      SUNNY     84  54  35 VRB7      30.26F
PENSACOLA      SUNNY     78  66  66 SE12      30.24S
$$

!ALZ063-066-041800
...South Alabama...

CITY           SKY/WX    TMP DP  RH WIND       PRES   REMARKS
DOTHAN         SUNNY     80  52  37 E8        30.31S
OZARK CAIRNS   MOSUNNY   79  52  38 NE9       30.27S
FT RUCKER HELI PTSUNNY   80  52  37 VRB7      30.26S
RUCKER HELI 3  PTSUNNY   77  53  42 SE6       30.29S
RUCKER HELI 2  PTSUNNY   78  53  41 E6        30.27S
FLORALA APT    MOSUNNY   80  51  36 E9G16     30.28S
ANDALUSIA      PTSUNNY   85  52  32 VRB7G17   30.27S
TROY           MOSUNNY   80  57  45 VRB6      30.29F
EUFALA         FAIR      80  59  48 CALM      30.28F
MOBILE         PTSUNNY   80  60  50 SE17G24   30.24S
$$

!GAZ120>161-041800
...Southwest and South Central Georgia...

CITY           SKY/WX    TMP DP  RH WIND       PRES   REMARKS
THOMASVILLE    FAIR      79  52  38 NE6       30.29S
BAINBRIDGE     SUNNY     84  52  32 E10       30.28S
MOODY AFB      PTSUNNY   81  50  33 E12       30.26F
VALDOSTA       MOSUNNY   82  51  34 E10       30.27F
MOULTRIE       SUNNY     79  50  36 SE6       30.28F
BLAKELY        SUNNY     81  50  34 E8        30.29S
ALBANY         MOSUNNY   82  51  34 E13       30.30F
TIFTON         FAIR      78  48  34 SE6       30.29F
FITZGERALD     FAIR      80  49  32 S3        30.32F
CORDELE        FAIR      81  49  32 NE9       30.31F
AMERICUS       FAIR      77  50  38 CALM      30.32F
HOMERVILLE     PTSUNNY   81  55  41 E8        30.29S
$$

!GMZ750-755-770-775-041800
...Coastal and Buoy Obs...

STATION/POSITION TIME  TEMP    WIND        PRES    VSBY  WAVE
                       AIR SEA DIR/SP/G                  HT/PER
                 (UTC) (F)     (DEG/KT/KT) (MB)    (MI)  (FT/S)
KEATON BEACH     1700   74     250/  5/  7 1024.4F
CEDAR KEY        1700   76      90/  7/  9 1024.3F
C TOWER          1700   73     110/ 13/ 14 1024.1F
APALACHICOLA BUO 1650   74 74   90/ 14/ 16 1023.3F         5/ 7
PANAMA CITY BUOY 1650   75 75  100/ 17/ 21 1023.3S         5/ 6
MOBILE BUOY      1650   75 75  110/ 19/ 21 1022.4S         5/ 6
ORANGE BCH AL BU 1650   75 75  100/ 14/ 17 1022.8R         4/ 7
$$



USA.gov is the U.S. government's official web portal to all federal, state and local government web resources and services.